Total_Precipitation_Accumulation
1.54 1.69 1.49 1.09 0.92 0.81 0.71 0.60 0.53 0.38 0.32 0.42 0.39 0.28 0.21 0.23 0.28 0.30 0.32 0.36 0.41 0.40 0.41 0.49 0.59 0.72 0.85 0.95 1.04 1.10 1.15 1.24 1.42 1.56 1.62 1.59 1.69 1.68 1.68 1.67 1.56 1.46 1.38 1.28
1.59 1.31 0.74 0.56 0.61 0.73 0.81 0.76 0.57 0.42 0.36 0.44 0.39 0.27 0.21 0.21 0.26 0.28 0.32 0.36 0.39 0.42 0.48 0.53 0.67 0.80 0.85 0.88 1.00 1.10 1.11 1.17 1.22 1.25 1.37 1.43 1.47 1.52 1.57 1.62 1.65 1.62 1.52 1.38
1.13 0.76 0.48 0.59 0.72 0.87 0.86 0.75 0.59 0.52 0.51 0.56 0.54 0.47 0.27 0.23 0.24 0.25 0.30 0.33 0.36 0.40 0.42 0.44 0.57 0.80 0.89 0.89 0.96 1.05 1.10 1.12 1.22 1.27 1.43 1.51 1.63 1.66 1.59 1.54 1.56 1.60 1.56 1.46
0.78 0.52 0.56 0.72 0.74 0.80 0.86 0.56 0.54 0.58 0.81 0.99 0.79 0.87 0.40 0.27 0.28 0.26 0.29 0.35 0.35 0.38 0.41 0.40 0.48 0.71 0.88 0.87 0.98 1.10 1.17 1.23 1.27 1.33 1.42 1.35 1.31 1.37 1.32 1.33 1.34 1.46 1.57 1.53
0.86 0.58 0.67 0.77 0.62 0.60 0.64 0.52 0.63 0.73 0.93 1.10 0.83 0.88 0.48 0.28 0.35 0.33 0.34 0.39 0.38 0.38 0.41 0.39 0.42 0.61 0.83 0.92 0.99 1.17 1.23 1.29 1.34 1.31 1.39 1.36 1.25 1.20 1.28 1.40 1.47 1.43 1.46 1.54
0.69 0.56 0.66 0.60 0.48 0.53 0.62 0.81 1.06 1.18 1.56 1.72 0.79 0.71 0.56 0.43 0.44 0.40 0.38 0.42 0.42 0.40 0.43 0.45 0.46 0.59 0.74 0.86 0.98 1.10 1.28 1.30 1.40 1.35 1.36 1.32 1.21 1.15 1.19 1.27 1.44 1.50 1.49 1.52
1.00 0.75 0.71 0.62 0.76 0.87 1.03 1.53 2.39 2.70 2.67 1.63 0.47 0.48 0.57 0.44 0.41 0.43 0.42 0.41 0.42 0.42 0.46 0.45 0.44 0.52 0.62 0.76 0.90 1.02 1.16 1.33 1.38 1.38 1.32 1.30 1.20 1.12 1.12 1.15 1.23 1.32 1.39 1.45
1.15 1.02 0.75 0.73 0.92 1.15 1.11 1.26 1.71 1.85 1.41 0.69 0.37 0.44 0.46 0.37 0.33 0.33 0.34 0.36 0.34 0.38 0.47 0.47 0.42 0.46 0.54 0.67 0.81 0.94 1.04 1.25 1.37 1.35 1.34 1.35 1.25 1.14 1.09 1.10 1.12 1.17 1.14 1.19
1.14 0.89 0.58 0.55 0.57 0.74 1.02 1.03 0.84 1.08 0.80 0.53 0.48 0.39 0.34 0.28 0.26 0.28 0.33 0.38 0.38 0.39 0.45 0.47 0.41 0.45 0.51 0.64 0.75 0.85 0.96 1.12 1.30 1.37 1.39 1.39 1.31 1.21 1.12 1.10 1.10 1.17 1.12 1.04
1.26 1.05 0.63 0.60 0.70 0.82 0.91 0.97 1.13 1.50 1.26 0.75 0.44 0.33 0.38 0.36 0.32 0.31 0.35 0.39 0.38 0.36 0.39 0.40 0.38 0.42 0.51 0.62 0.72 0.80 0.91 1.02 1.16 1.27 1.36 1.40 1.42 1.32 1.25 1.21 1.14 1.09 1.11 1.11
1.19 1.25 0.92 0.87 1.06 1.06 0.98 1.21 1.45 1.45 1.11 0.91 0.60 0.45 0.43 0.36 0.30 0.28 0.30 0.35 0.35 0.35 0.39 0.38 0.37 0.41 0.49 0.61 0.70 0.74 0.82 0.97 1.11 1.19 1.25 1.33 1.45 1.35 1.31 1.31 1.24 1.13 1.08 1.12
1.22 1.44 1.15 0.87 0.74 0.70 0.86 1.04 1.20 1.43 1.11 0.69 0.66 0.52 0.35 0.27 0.24 0.23 0.24 0.30 0.36 0.36 0.37 0.35 0.37 0.42 0.46 0.55 0.66 0.72 0.78 0.85 1.00 1.14 1.20 1.26 1.39 1.40 1.32 1.33 1.31 1.19 1.10 1.09
1.56 1.82 1.67 1.42 1.21 1.01 1.07 0.97 0.98 1.04 1.05 0.80 0.70 0.52 0.31 0.23 0.20 0.20 0.21 0.25 0.33 0.34 0.36 0.34 0.36 0.43 0.47 0.51 0.62 0.69 0.74 0.79 0.87 1.05 1.12 1.22 1.31 1.37 1.34 1.31 1.36 1.32 1.27 1.28
1.80 1.88 1.41 1.32 1.19 1.10 1.06 0.84 0.80 1.06 1.27 0.85 0.56 0.44 0.33 0.29 0.26 0.25 0.24 0.25 0.31 0.35 0.35 0.34 0.36 0.42 0.48 0.53 0.58 0.63 0.66 0.76 0.83 1.00 1.12 1.16 1.24 1.28 1.30 1.34 1.34 1.43 1.48 1.54
1.73 1.66 0.78 0.50 0.46 0.54 0.64 0.60 0.62 0.78 0.80 0.70 0.44 0.40 0.46 0.41 0.37 0.35 0.32 0.30 0.30 0.34 0.35 0.35 0.39 0.43 0.47 0.53 0.56 0.56 0.59 0.67 0.76 0.92 1.03 1.10 1.18 1.31 1.39 1.43 1.47 1.47 1.57 1.62
1.57 1.51 0.78 0.47 0.32 0.38 0.48 0.42 0.44 0.46 0.44 0.46 0.38 0.44 0.46 0.41 0.34 0.34 0.34 0.33 0.33 0.37 0.37 0.38 0.42 0.46 0.49 0.50 0.53 0.51 0.52 0.61 0.70 0.85 0.92 1.00 1.15 1.28 1.43 1.46 1.54 1.57 1.59 1.64
1.37 1.32 1.16 0.78 0.38 0.57 0.72 0.49 0.43 0.43 0.40 0.41 0.48 0.52 0.45 0.41 0.38 0.38 0.36 0.36 0.36 0.37 0.36 0.37 0.44 0.48 0.51 0.52 0.50 0.50 0.50 0.55 0.62 0.75 0.85 0.92 1.08 1.18 1.29 1.34 1.36 1.42 1.38 1.35
1.10 1.21 1.48 1.10 0.83 1.16 0.65 0.37 0.36 0.38 0.41 0.40 0.43 0.46 0.45 0.47 0.45 0.40 0.38 0.38 0.38 0.38 0.37 0.36 0.40 0.44 0.46 0.50 0.52 0.51 0.50 0.54 0.61 0.69 0.78 0.81 0.95 1.08 1.13 1.20 1.24 1.25 1.20 1.18
0.68 1.14 1.69 1.43 1.10 0.69 0.35 0.28 0.38 0.45 0.52 0.43 0.38 0.38 0.38 0.41 0.42 0.45 0.42 0.37 0.39 0.38 0.37 0.36 0.38 0.41 0.42 0.45 0.49 0.50 0.51 0.53 0.58 0.65 0.72 0.75 0.84 1.00 1.02 1.09 1.17 1.15 1.17 1.16
0.69 1.11 1.79 1.55 1.19 0.65 0.36 0.22 0.26 0.41 0.62 0.40 0.34 0.38 0.40 0.40 0.58 0.58 0.50 0.43 0.40 0.37 0.34 0.36 0.38 0.38 0.41 0.43 0.43 0.45 0.47 0.49 0.54 0.62 0.70 0.71 0.76 0.88 0.89 0.93 1.00 1.03 1.04 1.08
1.03 1.49 1.67 1.27 1.01 0.50 0.30 0.23 0.26 0.67 0.79 0.39 0.35 0.38 0.41 0.49 0.59 0.55 0.48 0.45 0.42 0.42 0.39 0.37 0.38 0.42 0.43 0.43 0.44 0.46 0.46 0.46 0.50 0.56 0.62 0.67 0.73 0.80 0.81 0.83 0.88 0.95 0.99 1.03
0.72 0.99 1.01 0.95 1.04 0.59 0.30 0.31 0.54 0.67 0.40 0.34 0.34 0.36 0.39 0.38 0.36 0.37 0.40 0.42 0.41 0.43 0.43 0.40 0.41 0.45 0.44 0.43 0.43 0.43 0.46 0.46 0.47 0.54 0.62 0.66 0.70 0.74 0.76 0.80 0.86 0.89 0.97 1.09
0.51 0.65 0.71 0.71 0.66 0.47 0.37 0.43 0.45 0.36 0.32 0.29 0.32 0.34 0.34 0.34 0.33 0.35 0.36 0.38 0.39 0.41 0.42 0.40 0.42 0.46 0.46 0.46 0.43 0.42 0.45 0.45 0.47 0.54 0.59 0.65 0.70 0.69 0.77 0.81 0.88 0.94 1.01 1.11
0.41 0.38 0.47 0.45 0.36 0.30 0.31 0.31 0.31 0.29 0.28 0.27 0.28 0.32 0.32 0.33 0.32 0.33 0.33 0.36 0.38 0.38 0.37 0.36 0.39 0.44 0.46 0.47 0.46 0.45 0.46 0.47 0.50 0.54 0.55 0.60 0.69 0.73 0.75 0.81 0.87 0.90 0.95 1.11
0.35 0.35 0.43 0.40 0.29 0.24 0.23 0.24 0.27 0.27 0.23 0.21 0.23 0.26 0.28 0.29 0.30 0.31 0.34 0.36 0.38 0.38 0.36 0.35 0.37 0.41 0.45 0.46 0.46 0.46 0.49 0.53 0.55 0.54 0.54 0.58 0.67 0.72 0.73 0.77 0.83 0.89 0.90 1.11
0.27 0.33 0.42 0.38 0.26 0.29 0.25 0.20 0.20 0.23 0.22 0.21 0.23 0.26 0.25 0.25 0.28 0.29 0.31 0.34 0.34 0.34 0.35 0.34 0.34 0.38 0.41 0.43 0.44 0.47 0.52 0.57 0.60 0.59 0.59 0.62 0.69 0.71 0.72 0.75 0.81 0.91 0.95 1.02